Content
SEND FEEDBACK

Daily
Averages
Monthly
Summary
United States of America

TAMUNING, GUAM


Home > North America > United States > Guam
Elevation: 250 feet     Latitude: 13 29N     Longitude: 144 47E

WEATHER
 
SELECT A DAY
Number of Records: 342,554;   Date Range: 1/1/95 - 9/16/14
 
SHARE

PRINT THIS DATA

[ ← Previous Day ]
WEATHER ALMANAC - MARCH 15, 2014
[ Next Day → ]
[ °C ]   °F
Weather ElementAverageHighLow
Temperature79.7 °F84.2 °F (12:23 pm)77 °F (1:08 am)
Dewpoint74.3 °F77 °F (1:43 pm)73.4 °F (1:08 am)
Humidity83.5 %94 % (4:43 pm)73 % (12:58 pm)
Barometer29.96 in30.02 in (8:38 am)29.88 in (2:58 pm)
Wind Speed16.5 mph23 mph (12:38 pm)
Wind Gust27.6 mph (1:38 pm)
Weather ElementAverage
Visibility9.8 mi
Wind DirectionENE (57 °)

Weather ElementTotal
Precipitation0.04 in
Cooling Degree Days15.6 (Base 65)
Growing Degree Days30.6 (Base 50)
Averaged from 124 records on March 15, 2014
WEATHER CONDITIONS BREAKOUT
WIND DIRECTION BREAKOUT
WEATHER BY HOUR - MARCH 15, 2014
[ °C ]   °F
Local TimeTemperatureDewpointHumidityBarometerVisibilityWind DirectionWind SpeedGust SpeedPrecipitationEventsConditions
12:58 AM77.7 °F73.9 °F88 %29.97 in10.0 miENE (60°)11.5 mphMostly Cloudy
1:08 AM77.0 °F73.4 °F89 %30.00 in10.0 miENE (70°)11.5 mphMostly Cloudy
1:18 AM77.0 °F73.4 °F89 %30.00 in10.0 miENE (70°)15.0 mphMostly Cloudy
1:23 AM77.0 °F73.4 °F89 %30.00 in10.0 miENE (70°)12.7 mphScattered Clouds
1:53 AM77.0 °F73.4 °F89 %29.99 in10.0 miENE (70°)12.7 mphMostly Cloudy
1:58 AM77.4 °F73.8 °F89 %29.96 in10.0 miENE (70°)12.7 mphScattered Clouds
2:08 AM77.0 °F73.4 °F89 %29.98 in10.0 miENE (60°)15.0 mphMostly Cloudy
2:13 AM77.0 °F73.4 °F89 %29.98 in10.0 miENE (70°)15.0 mphMostly Cloudy
2:18 AM77.0 °F73.4 °F89 %29.98 in10.0 miENE (60°)13.8 mphMostly Cloudy
2:23 AM77.0 °F73.4 °F89 %29.98 in10.0 miENE (60°)15.0 mphMostly Cloudy
2:28 AM77.0 °F73.4 °F89 %29.98 in10.0 miENE (70°)13.8 mphMostly Cloudy
2:33 AM77.0 °F73.4 °F89 %29.98 in10.0 miENE (70°)15.0 mphMostly Cloudy
2:38 AM77.0 °F73.4 °F89 %29.98 in10.0 miENE (70°)12.7 mphMostly Cloudy
2:43 AM77.0 °F73.4 °F89 %29.98 in10.0 miENE (70°)16.1 mphMostly Cloudy
2:58 AM77.5 °F74.1 °F89 %29.94 in10.0 miENE (60°)13.8 mphMostly Cloudy
3:13 AM77.0 °F73.4 °F89 %29.97 in10.0 miENE (70°)15.0 mphScattered Clouds
3:58 AM77.4 °F73.8 °F89 %29.94 in10.0 miENE (60°)12.7 mphScattered Clouds
4:08 AM77.0 °F73.4 °F89 %29.97 in10.0 miENE (70°)15.0 mphScattered Clouds
4:23 AM77.0 °F73.4 °F89 %29.97 in10.0 miENE (60°)12.7 mphMostly Cloudy
4:28 AM77.0 °F73.4 °F89 %29.97 in10.0 miNE (50°)12.7 mphMostly Cloudy
4:38 AM77.0 °F73.4 °F89 %29.97 in10.0 miNE (50°)15.0 mphScattered Clouds
4:43 AM77.0 °F73.4 °F89 %29.97 in10.0 miENE (60°)12.7 mphMostly Cloudy
4:58 AM77.7 °F73.9 °F88 %29.94 in10.0 miENE (60°)15.0 mphMostly Cloudy
5:03 AM77.0 °F73.4 °F89 %29.97 in10.0 miENE (60°)16.1 mphMostly Cloudy
5:08 AM78.8 °F73.4 °F83 %29.97 in10.0 miENE (60°)13.8 mphMostly Cloudy
5:13 AM78.8 °F73.4 °F83 %29.98 in10.0 miENE (60°)13.8 mphMostly Cloudy
5:18 AM77.0 °F73.4 °F89 %29.98 in10.0 miENE (60°)12.7 mphMostly Cloudy
5:28 AM77.0 °F73.4 °F89 %29.98 in10.0 miENE (60°)12.7 mphMostly Cloudy
5:33 AM77.0 °F73.4 °F89 %29.98 in10.0 miENE (60°)15.0 mphMostly Cloudy
5:38 AM77.0 °F73.4 °F89 %29.98 in10.0 miENE (60°)12.7 mphScattered Clouds
5:48 AM77.0 °F73.4 °F89 %29.98 in10.0 miENE (60°)16.1 mphMostly Cloudy
5:53 AM77.0 °F73.4 °F89 %29.99 in10.0 miENE (60°)15.0 mphMostly Cloudy
5:58 AM77.9 °F73.4 °F86 %29.96 in10.0 miENE (60°)15.0 mphMostly Cloudy
6:03 AM77.0 °F73.4 °F89 %29.99 in10.0 miENE (60°)12.7 mphScattered Clouds
6:53 AM78.8 °F73.4 °F83 %30.00 in10.0 miNE (50°)17.3 mphMostly Cloudy
6:58 AM78.8 °F73.4 °F83 %29.97 in10.0 miNE (50°)16.1 mphMostly Cloudy
7:03 AM78.8 °F73.4 °F83 %30.00 in10.0 miENE (60°)16.1 mphMostly Cloudy
7:08 AM78.8 °F73.4 °F83 %30.00 in10.0 miENE (60°)12.7 mphMostly Cloudy
7:18 AM78.8 °F73.4 °F83 %30.01 in10.0 miENE (60°)15.0 mphScattered Clouds
7:58 AM79.3 °F73.8 °F83 %29.99 in10.0 miENE (60°)15.0 mphPartly Cloudy
8:38 AM80.6 °F73.4 °F79 %30.02 in10.0 miENE (60°)18.4 mphMostly Cloudy
8:43 AM80.6 °F75.2 °F84 %30.02 in10.0 miNE (50°)17.3 mphMostly Cloudy
8:53 AM80.6 °F73.4 °F79 %30.02 in10.0 miNE (50°)16.1 mphScattered Clouds
8:58 AM80.8 °F74.3 °F81 %29.99 in10.0 miNE (50°)17.3 mphScattered Clouds
9:23 AM82.4 °F75.2 °F79 %30.01 in10.0 miNE (50°)15.0 mphMostly Cloudy
9:28 AM82.4 °F75.2 °F79 %30.01 in10.0 miNE (50°)15.0 mphMostly Cloudy
9:53 AM82.4 °F75.2 °F79 %30.01 in10.0 miNE (50°)16.1 mph21.9 mphMostly Cloudy
9:58 AM82.9 °F75.2 °F77 %29.99 in10.0 miENE (60°)18.4 mph21.9 mphMostly Cloudy
10:13 AM82.4 °F73.4 °F74 %30.01 in10.0 miENE (60°)16.1 mphMostly Cloudy
10:18 AM82.4 °F75.2 °F79 %30.01 in10.0 miENE (60°)17.3 mphMostly Cloudy
10:23 AM82.4 °F75.2 °F79 %30.01 in10.0 miNE (50°)19.6 mph23.0 mphMostly Cloudy
10:38 AM82.4 °F75.2 °F79 %30.00 in10.0 miNE (50°)16.1 mphMostly Cloudy
10:48 AM82.4 °F75.2 °F79 %30.00 in10.0 miNE (40°)16.1 mph24.2 mphMostly Cloudy
10:53 AM82.4 °F75.2 °F79 %30.00 in10.0 miNE (50°)17.3 mph26.5 mphMostly Cloudy
10:58 AM82.6 °F74.8 °F77 %29.97 in10.0 miNE (50°)18.4 mph26.5 mphMostly Cloudy
11:03 AM82.4 °F75.2 °F79 %30.00 in10.0 miNE (40°)16.1 mph26.5 mphMostly Cloudy
11:13 AM82.4 °F75.2 °F79 %29.99 in10.0 miNE (50°)17.3 mph25.3 mphScattered Clouds
11:48 AM82.4 °F75.2 °F79 %29.98 in10.0 miNE (50°)19.6 mphMostly Cloudy
11:58 AM83.1 °F76.1 °F79 %29.94 in10.0 miENE (60°)20.7 mphMostly Cloudy
12:23 PM84.2 °F75.2 °F74 %29.96 in10.0 miNE (50°)20.7 mph26.5 mphScattered Clouds
12:38 PM82.4 °F75.2 °F79 %29.95 in10.0 miNE (50°)23.0 mphMostly Cloudy
12:48 PM84.2 °F75.2 °F74 %29.95 in10.0 miNE (50°)21.9 mph26.5 mphMostly Cloudy
12:58 PM83.8 °F74.5 °F73 %29.91 in10.0 miNE (50°)19.6 mphScattered Clouds
1:28 PM84.2 °F75.2 °F74 %29.93 in10.0 miNE (50°)20.7 mph25.3 mphMostly Cloudy
1:38 PM82.4 °F75.2 °F79 %29.93 in5.0 miENE (60°)18.4 mph27.6 mphRainLight Rain
1:43 PM80.6 °F77.0 °F89 %29.93 in5.0 miENE (60°)17.3 mph27.6 mphRainLight Rain
1:47 PM80.6 °F77.0 °F89 %29.93 in8.0 miNE (50°)18.4 mph27.6 mphMostly Cloudy
1:52 PM80.6 °F77.0 °F89 %29.93 in10.0 miNE (50°)18.4 mph25.3 mphScattered Clouds
1:58 PM81.5 °F76.5 °F85 %29.91 in10.0 miNE (50°)19.6 mph25.3 mph0.02 inScattered Clouds
2:03 PM82.4 °F75.2 °F79 %29.93 in10.0 miNE (50°)18.4 mphMostly Cloudy
2:08 PM82.4 °F75.2 °F79 %29.93 in10.0 miENE (60°)18.4 mphMostly Cloudy
2:23 PM82.4 °F75.2 °F79 %29.92 in10.0 miENE (60°)18.4 mphMostly Cloudy
2:28 PM82.4 °F75.2 °F79 %29.92 in10.0 miENE (60°)18.4 mphMostly Cloudy
2:33 PM82.4 °F75.2 °F79 %29.92 in10.0 miENE (60°)16.1 mphScattered Clouds
2:43 PM82.4 °F75.2 °F79 %29.92 in10.0 miENE (60°)18.4 mphMostly Cloudy
2:48 PM82.4 °F75.2 °F79 %29.91 in10.0 miENE (60°)17.3 mphScattered Clouds
2:58 PM82.4 °F74.3 °F76 %29.88 in10.0 miENE (60°)16.1 mphMostly Cloudy
3:08 PM82.4 °F75.2 °F79 %29.91 in10.0 miNE (50°)18.4 mphMostly Cloudy
3:13 PM82.4 °F75.2 °F79 %29.91 in10.0 miNE (50°)17.3 mphMostly Cloudy
3:18 PM82.4 °F75.2 °F79 %29.91 in10.0 miNE (50°)18.4 mphMostly Cloudy
3:23 PM82.4 °F75.2 °F79 %29.91 in10.0 miNE (50°)17.3 mphMostly Cloudy
3:28 PM82.4 °F73.4 °F74 %29.91 in10.0 miENE (60°)19.6 mphMostly Cloudy
3:33 PM82.4 °F75.2 °F79 %29.91 in10.0 miNE (50°)19.6 mphMostly Cloudy
3:43 PM82.4 °F75.2 °F79 %29.92 in10.0 miNE (50°)17.3 mphMostly Cloudy
3:53 PM82.4 °F73.4 °F74 %29.92 in10.0 miENE (70°)17.3 mphScattered Clouds
3:58 PM82.2 °F74.3 °F77 %29.89 in10.0 miENE (70°)17.3 mphScattered Clouds
4:03 PM82.4 °F75.2 °F79 %29.92 in10.0 miNE (50°)18.4 mphMostly Cloudy
4:13 PM82.4 °F75.2 °F79 %29.91 in10.0 miNE (50°)15.0 mphMostly Cloudy
4:23 PM82.4 °F75.2 °F79 %29.91 in8.0 miNE (50°)21.9 mph27.6 mphMostly Cloudy
4:28 PM80.6 °F77.0 °F89 %29.91 in4.0 miNE (50°)16.1 mph27.6 mphMostly Cloudy
4:43 PM78.8 °F77.0 °F94 %29.91 in10.0 miNE (50°)13.8 mphMostly Cloudy
4:53 PM78.8 °F75.2 °F89 %29.91 in10.0 miENE (60°)17.3 mphMostly Cloudy
4:58 PM79.5 °F75.7 °F88 %29.88 in10.0 miNE (50°)18.4 mph0.02 inMostly Cloudy
5:08 PM78.8 °F75.2 °F89 %29.92 in10.0 miENE (60°)16.1 mphScattered Clouds
5:43 PM78.8 °F75.2 °F89 %29.92 in10.0 miENE (60°)18.4 mphMostly Cloudy
5:48 PM78.8 °F73.4 °F83 %29.92 in10.0 miNE (50°)18.4 mphScattered Clouds
5:58 PM79.0 °F74.1 °F85 %29.89 in10.0 miNE (50°)15.0 mphScattered Clouds
6:03 PM78.8 °F75.2 °F89 %29.93 in10.0 miNE (50°)16.1 mphMostly Cloudy
6:13 PM78.8 °F75.2 °F89 %29.93 in10.0 miNE (50°)17.3 mphMostly Cloudy
6:38 PM78.8 °F73.4 °F83 %29.94 in10.0 miNE (50°)16.1 mphScattered Clouds
6:58 PM78.6 °F73.4 °F84 %29.91 in10.0 miNE (50°)18.4 mphPartly Cloudy
7:08 PM78.8 °F73.4 °F83 %29.95 in10.0 miNE (50°)16.1 mphMostly Cloudy
7:13 PM78.8 °F73.4 °F83 %29.95 in10.0 miENE (60°)16.1 mphScattered Clouds
7:23 PM78.8 °F73.4 °F83 %29.95 in10.0 miENE (60°)17.3 mphMostly Cloudy
7:43 PM78.8 °F73.4 °F83 %29.96 in10.0 miENE (60°)17.3 mph25.3 mphMostly Cloudy
7:53 PM78.8 °F73.4 °F83 %29.96 in10.0 miENE (60°)17.3 mphScattered Clouds
7:58 PM78.1 °F73.6 °F86 %29.94 in10.0 miENE (60°)16.1 mphScattered Clouds
8:23 PM78.8 °F73.4 °F83 %29.97 in10.0 miENE (60°)16.1 mphMostly Cloudy
8:28 PM78.8 °F73.4 °F83 %29.97 in10.0 miENE (60°)18.4 mphMostly Cloudy
8:33 PM78.8 °F73.4 °F83 %29.97 in10.0 miENE (60°)19.6 mphMostly Cloudy
8:58 PM78.8 °F73.4 °F83 %29.96 in10.0 miENE (60°)18.4 mphScattered Clouds
9:58 PM78.3 °F73.8 °F86 %29.96 in10.0 miENE (60°)17.3 mphPartly Cloudy
10:33 PM78.8 °F73.4 °F83 %29.99 in10.0 miENE (60°)17.3 mph26.5 mphMostly Cloudy
10:43 PM78.8 °F73.4 °F83 %29.99 in10.0 miENE (60°)18.4 mphMostly Cloudy
10:48 PM78.8 °F73.4 °F83 %29.99 in10.0 miENE (60°)18.4 mphMostly Cloudy
10:53 PM78.8 °F73.4 °F83 %29.99 in10.0 miENE (60°)15.0 mphMostly Cloudy
10:58 PM78.1 °F73.6 °F86 %29.96 in10.0 miENE (60°)17.3 mphMostly Cloudy
11:13 PM78.8 °F73.4 °F83 %29.99 in10.0 miNE (50°)18.4 mphScattered Clouds
11:23 PM78.8 °F73.4 °F83 %29.99 in10.0 miENE (60°)16.1 mphMostly Cloudy
11:33 PM78.8 °F73.4 °F83 %29.99 in10.0 miENE (60°)13.8 mphMostly Cloudy
11:38 PM78.8 °F73.4 °F83 %29.99 in10.0 miENE (60°)15.0 mphMostly Cloudy
11:43 PM78.8 °F73.4 °F83 %29.99 in10.0 miNE (50°)18.4 mphMostly Cloudy
11:53 PM78.8 °F73.4 °F83 %29.99 in10.0 miNE (50°)17.3 mphMostly Cloudy
11:58 PM78.1 °F74.1 °F88 %29.96 in10.0 miENE (60°)15.0 mphMostly Cloudy
Hourly data recorded from PGUA, located miles away from Tamuning, Guam







STORIES FROM OUR PARTNERS